Find KUIPER-00415

NORAD ID: 68930 Int'l Des: 2026-098M Owner: KUIP Country: US Constellation: amazon-leo operational
LEOCIRCULAR

現在のビュー

3D地球を読み込み中...

About KUIPER-00415

KUIPER-00415 (NORAD 68930) is a amazon-leo constellation satellite launched Apr 30, 2026 by KUIP of US. It operates in LEO, CIRCULAR orbit with a mass of 490.00 kg.

KUIPER-00415について

説明を読み込み中...

次回通過

Passes for default location (London). Set your location on the main map for personalized predictions.

高度履歴

Loading altitude history...

軌道要素

1 68930U 26098M 26169.98429741 .00012129 00000-0 40354-3 0 9993
2 68930 51.8776 59.7943 0011052 144.0181 216.1550 15.31504839 7610
Epoch: Jun 18, 2026 • Age: 31 hours

現在のステータス

高度 473.7 km
速度 7.63 km/s
衛星直下点 -22.40°S, 110.32°W
打ち上げ日 Apr 30, 2026
運用期間 0.1 years
タイプ internet

技術仕様

分類 Payload
質量 490.00 kg
乾燥質量 490.00 kg
総質量 490.00 kg
長さ 1.80 m
直径 0.70 m
スパン 5.00 m
形状 Box + 2 pan
製造者 KUIP
バスタイプ Kuiper
フェーズステータス In Orbit
所有者/国 KUIP/US

Most Searched